Regional Weather Roundup
Issued by NWS

Home | Current Version | Previous Version | Graphics & Text | Print | Product List | Glossary On
Versions: 1 2 3 4 5 6 7 8 9 10 11 12 13 14 15 16 17 18 19 20 21 22 23 24 25 26 27 28 29 30 31 32 33 34 35 36 37 38 39 40 41 42 43 44 45 46 47 48 49 50
675
ASUS43 KLOT 260908
RWRIL

ILLINOIS REGIONAL WEATHER ROUNDUP
NATIONAL WEATHER SERVICE CHICAGO/ROMEOVILLE IL
400 AM CDT THU MAY 26 2016

NOTE: "FAIR" INDICATES FEW OR NO CLOUDS BELOW 12,000 FEET WITH NO
SIGNIFICANT WEATHER AND/OR OBSTRUCTIONS TO VISIBILITY.

* THESE STATIONS ARE NOT UNDER NWS QUALITY CONTROL. THEY ALSO MAY NOT
  REPORT WEATHER SUCH AS PRECIPITATION OR FOG.

ILZ001-002-007-009-015-016-024-261000-
NORTHWEST ILLINOIS

CITY           SKY/WX    TMP DP  RH WIND       PRES   REMARKS
MOLINE         MOCLDY    73  63  70 S7        29.84F
SAVANNA*       CLOUDY    68  64  87 S6        29.83F
$$

ILZ003-004-008-010-011-017-018-261000-
NORTH CENTRAL ILLINOIS

CITY           SKY/WX    TMP DP  RH WIND       PRES   REMARKS
ROCKFORD       PTCLDY    65  63  93 S6        29.89F
FREEPORT*      CLEAR     65  62  89 S7        29.87F
ROCHELLE*      CLEAR     65  63  95 S8        29.88F
DE KALB*       CLEAR     65  64  96 S8        29.89F FOG
$$

ILZ005-006-012>014-019>023-261000-
NORTHEAST ILLINOIS

CITY           SKY/WX    TMP DP  RH WIND       PRES   REMARKS
CHICAGO-OHARE  CLEAR     64  63  96 S7        29.89F
CHICAGO-MIDWAY CLEAR     69  64  84 S9        29.90F
AURORA         CLEAR     66  64  93 S8        29.89F FOG
LANSING*       CLEAR     65  63  91 S7        29.93F
JOLIET*        CLEAR     69  67  92 S5        29.91F
WAUKEGAN       CLEAR     64  63  96 SW9       29.88F FOG
DUPAGE AIRPORT CLEAR     66  62  87 S8        29.89F
KANKAKEE*      CLEAR    N/A N/A N/A S9        29.95S
WHEELING       CLEAR     62  61  96 S5        29.90F FOG
MORRIS*        CLEAR     69  65  88 S5        29.89F
ROMEOVILLE*    CLEAR     67  63  89 S8        29.91F
NORTHERLY ISL    N/A     68  64  87 S9          N/A
NORTHERLY ISL    N/A     68  64  87 S9          N/A
$$

LMZ740>746-261000-
SOUTHERN LAKE MICHIGAN

STATION/POSITION SKY/WX   TEMP    WIND        PRES    VSBY  WAVE
                          AIR SEA DIR/SP/G                  HT/PER
                          (F)     (DEG/KT/KT) (MB)    (MI)  (FT/S)
SOUTHERN BUOY              54 49  150/ 10/ 12 1012.5          1
WILMETTE HARBOR            58 55  170/  8/ 10   N/A           1/ 3
HARRISON CRIB              63     180/ 13/ 13   N/A
BURNHAM HARBOR             69     210/  9/ 10   N/A
CALUMET HARBOR             69     180/  6/ 13 1012.7F
BURNS HARBOR               68     180/  7/ 15 1014.2S
MICHIGAN CITY              68     150/ 10/ 13   N/A
MICHIGAN CITY 6N           63 58  180/  6/  8   N/A           1
ST. JOSEPH                 64 61  150/ 10/ 12   N/A           1
$$

ILZ025>027-034>036-040-047-049-050-058-095>099-261000-
WEST-CENTRAL ILLINOIS

CITY           SKY/WX    TMP DP  RH WIND       PRES   REMARKS
QUINCY         CLOUDY    71  65  81 S10       29.86F
GALESBURG*     CLOUDY    69  64  83 S9        29.88S
MACOMB*        CLOUDY    70  64  80 S12       29.90F
JACKSONVILLE*  CLOUDY    70  65  84 S6        29.90F
PITTSFIELD*    CLOUDY    70  66  87 S6        29.91F
$$

ILZ028>032-037-038-041>044-048-051>054-059>061-261000-
CENTRAL ILLINOIS

CITY           SKY/WX    TMP DP  RH WIND       PRES   REMARKS
PONTIAC        CLEAR     69  67  93 S10       29.92F
BLOOMINGTON    CLEAR     66  66 100 S9        29.94F
DECATUR        PTCLDY    69  65  86 S8        29.95F
PEORIA         CLOUDY    69  65  86 S8        29.91S
LACON*         PTCLDY    68  65  90 S5        29.89F
LINCOLN*       CLOUDY    70  67  91 S6        29.92F
SPRINGFIELD    CLOUDY    72  66  81 S7        29.93F
TAYLORVILLE    CLOUDY    69  67  92 S8        29.94F
$$

ILZ033-039-045-046-055>057-062-063-261000-
EAST-CENTRAL ILLINOIS

CITY           SKY/WX    TMP DP  RH WIND       PRES   REMARKS
CHAMPAIGN      PTCLDY    67  65  93 S8        29.97S FOG
RANTOUL*       MOCLDY    70  67  90 S6        29.97S
MATTOON        MOCLDY    68  64  87 S9        29.97S
PARIS*         PTCLDY    66  65  96 S5        30.00F
$$

ILZ079-100>102-261000-
SOUTHWEST ILLINOIS

CITY           SKY/WX    TMP DP  RH WIND       PRES   REMARKS
ALTON          PTCLDY    68  66  93 SE8       29.94F
BELLEVILLE     CLEAR     68  68 100 VRB6      29.95S
CAHOKIA*       CLEAR     70  66  87 S7        29.94F
SPARTA*        MOCLDY    68  65  92 S10       29.99S
$$

ILZ064>066-069>071-074>076-080>082-084>086-088>090-092>094-261000-
SOUTH-CENTRAL ILLINOIS

CITY           SKY/WX    TMP DP  RH WIND       PRES   REMARKS
CARBONDALE     PTCLDY    67  62  84 S12       30.00S
CAIRO*         PTCLDY    65  63  92 SE3       30.02S
EFFINGHAM*     PTCLDY    67  67 100 SE3       29.99F
MARION         CLEAR     68  64  88 S9        30.02R
MT. VERNON     MOCLDY    66  61  82 S7        30.00F
CENTRALIA*     MOCLDY    68  67  95 S7        29.98S
SALEM*         MOCLDY    69  65  88 S6        29.98F
METROPOLIS*    MOCLDY    66  65  94 CALM      30.04S
$$

ILZ067-068-072-073-078-083-087-091-261000-
SOUTHEAST ILLINOIS

CITY           SKY/WX    TMP DP  RH WIND       PRES   REMARKS
LAWRENCEVILLE  MOCLDY    67  65  93 S6        30.02S
FLORA*         PTCLDY    68  65  89 S8        29.99F
FAIRFIELD*     CLOUDY    67  64  92 S5        30.00S
HARRISBURG*    CLOUDY    68  64  85 S5        30.02S
ROBINSON*      CLOUDY    66  65  97 S6        30.02S
CARMI*         CLEAR     65  64  97 S6        30.01S
$$

ABBREVIATIONS USED IN REMARKS
   TC - TEMPERATURE IN CELSIUS
  WCI - WIND CHILL INDEX
   HX - HEAT INDEX
  VSB - VISIBILITY
$$





USA.gov is the U.S. government's official web portal to all federal, state and local government web resources and services.